CW0126 Weather Reports


time (UTC)temp
C
wind
direction
speed
KPH
gust
KPH
rain 1hr
cm
rain 24hr
cm
rain mn
cm
humidity
%
barometer
mb
20260505214552 5 0 0.0 0.0 0.00 0.00 0.00 15 1015.5
20260505213040 6 0 0.0 0.0 0.00 0.00 0.00 23 1015.4
20260505211545 7 0 0.0 0.0 0.00 0.00 0.00 31 1015.4
20260505210037 7 0 0.0 0.0 0.00 0.00 0.00 35 1015.3
20260505204542 8 0 0.0 11.3 0.00 0.00 0.00 32 1015.3
20260505203050 9 278 3.2 9.7 0.00 0.00 0.00 31 1015.1
20260505201542 9 65 1.6 8.0 0.00 0.00 0.00 31 1015.2
20260505200039 10 316 3.2 12.9 0.00 0.00 0.00 31 1015.2
20260505194542 10 302 1.6 12.9 0.00 0.00 0.00 30 1015.2
20260505193037 10 235 3.2 11.3 0.00 0.00 0.00 30 1015.0
20260505191543 10 0 0.0 6.4 0.00 0.00 0.00 29 1015.1
20260505190043 10 0 0.0 4.8 0.00 0.00 0.00 29 1014.8
20260505184547 10 0 0.0 4.8 0.00 0.00 0.00 28 1014.7
20260505183043 10 89 0.0 3.2 0.00 0.00 0.00 27 1014.8
20260505181535 11 0 0.0 1.6 0.00 0.00 0.00 28 1014.7
20260505180037 11 0 0.0 0.0 0.00 0.00 0.00 26 1014.9
20260505174540 11 0 0.0 0.0 0.00 0.00 0.00 26 1014.8
20260505173039 10 0 0.0 0.0 0.00 0.00 0.00 26 1014.7
20260505171537 10 0 0.0 3.2 0.00 0.00 0.00 27 1014.8
20260505170038 11 325 1.6 6.4 0.00 0.00 0.00 27 1014.7
20260505164535 11 338 1.6 6.4 0.00 0.00 0.00 26 1014.8
20260505163041 11 0 0.0 3.2 0.00 0.00 0.00 25 1014.8
20260505161540 11 0 1.6 3.2 0.00 0.00 0.00 24 1014.8
20260505153044 11 343 1.6 9.7 0.00 0.00 0.00 26 1015.2
20260505151544 11 51 1.6 3.2 0.00 0.00 0.00 26 1015.1
20260505124543 12 0 1.6 11.3 0.00 0.00 0.00 21 1015.0
20260505123042 12 0 0.0 6.4 0.00 0.00 0.00 20 1015.1
20260505121546 12 300 1.6 11.3 0.00 0.00 0.00 19 1015.2
20260505120038 12 302 3.2 14.5 0.00 0.00 0.00 17 1015.3
20260505114537 12 327 1.6 11.3 0.00 0.00 0.00 17 1015.3
20260505113042 12 0 1.6 12.9 0.00 0.00 0.00 17 1015.3
20260505111544 11 359 1.6 12.9 0.00 0.00 0.00 17 1015.4
20260505101544 11 177 3.2 9.7 0.00 0.00 0.00 12 1015.8
20260505100040 11 287 3.2 8.0 0.00 0.00 0.00 11 1015.8
20260505094538 11 159 1.6 9.7 0.00 0.00 0.00 8 1015.9
20260505093046 10 277 1.6 3.2 0.00 0.00 0.00 7 1016.0
20260505091537 10 338 0.0 0.0 0.00 0.00 0.00 3 1016.1
20260505090036 10 0 0.0 1.6 0.00 0.00 0.00 2 1016.0
20260505084540 10 88 0.0 3.2 0.00 0.00 0.00 100 1015.9
20260505083045 10 0 0.0 0.0 0.00 0.00 0.00 100 1016.0
20260505081537 10 0 0.0 0.0 0.00 0.00 0.00 100 1016.0
20260505080042 8 0 0.0 0.0 0.00 0.00 0.00 100 1015.9
20260505074537 7 0 0.0 3.2 0.00 0.00 0.00 100 1015.8
20260505073043 8 0 0.0 3.2 0.00 0.00 0.00 100 1016.0
20260505071540 7 0 0.0 0.0 0.00 0.00 0.00 100 1016.1
20260505070036 7 0 0.0 0.0 0.00 0.00 0.00 100 1016.1
20260505064537 6 0 0.0 0.0 0.00 0.00 0.00 100 1016.0
20260505063037 5 0 0.0 0.0 0.00 0.00 0.00 100 1016.3
20260505061608 3 0 0.0 0.0 0.00 0.00 0.00 100 1016.3
20260505060048 2 0 0.0 0.0 0.00 0.00 0.00 100 1016.2
20260505054546 2 0 0.0 0.0 0.00 0.00 0.00 100 1016.3
20260505053039 1 0 0.0 0.0 0.00 0.00 0.00 100 1016.3
20260505051537 2 0 0.0 0.0 0.00 0.00 0.00 100 1016.2
20260505041535 2 0 0.0 0.0 0.00 0.00 0.00 100 1016.0
20260505040052 2 0 0.0 0.0 0.00 0.00 0.00 100 1016.1
20260505034540 2 0 0.0 0.0 0.00 0.00 0.00 100 1016.0
20260505033033 2 0 0.0 0.0 0.00 0.00 0.00 100 1015.9
20260505031548 2 0 0.0 0.0 0.00 0.00 0.00 100 1015.8
20260505030041 2 0 0.0 0.0 0.00 0.00 0.00 100 1015.6
20260505024534 2 0 0.0 0.0 0.00 0.00 0.00 100 1015.6
20260505023034 3 0 0.0 1.6 0.00 0.00 0.00 100 1015.8
20260505021540 3 0 0.0 0.0 0.00 0.00 0.00 100 1015.7
20260505020039 3 0 0.0 0.0 0.00 0.00 0.00 100 1016.0
20260505014542 4 0 0.0 1.6 0.00 0.00 0.00 100 1015.9
20260505013034 5 0 0.0 0.0 0.00 0.00 0.00 100 1016.2
20260505011537 6 0 0.0 0.0 0.00 0.00 0.00 100 1016.3
20260505010036 7 0 0.0 0.0 0.00 0.00 0.00 100 1016.3
20260505004542 8 0 0.0 0.0 0.00 0.00 0.00 1 1016.3
20260505003038 9 0 0.0 0.0 0.00 0.00 0.00 7 1016.4
20260505001537 9 0 0.0 3.2 0.00 0.00 0.00 8 1016.4
20260505000047 9 0 0.0 0.0 0.00 0.00 0.00 10 1016.3
20260504234536 10 0 0.0 3.2 0.00 0.00 0.00 14 1016.3
20260504233036 10 33 0.0 8.0 0.00 0.00 0.00 14 1016.4
20260504231539 10 353 3.2 8.0 0.00 0.00 0.00 14 1016.4
20260504230040 10 0 0.0 8.0 0.00 0.00 0.00 12 1016.4
20260504224536 10 0 0.0 0.0 0.00 0.00 0.00 9 1016.5
20260504223037 10 0 0.0 0.0 0.00 0.00 0.00 8 1016.7
20260504221542 10 335 1.6 8.0 0.00 0.00 0.00 6 1016.7
20260504220048 10 52 3.2 8.0 0.00 0.00 0.00 4 1016.7